Location: Sungai Dangang
(2.7500°N, 113.8333°E)
Time: 05:17:07
(UTC+00:00)

Cosmos 1758 Rocket - Pass Details

Date: 16 May 2021
Orbit: 601 x 636 km, 82.5° (Epoch: 16 June)

Event Time Altitude Azimuth Distance (km) Brightness Sun altitude
Exits shadow 20:23:46 61° 109° (ESE) 707 3.9 -26.5°
Maximum altitude 20:23:59 62° 94° (E) 701 3.9 -26.4°
Drops below altitude 10° 20:28:20 10° 13° (NNE) 1,992 6.6 -25.4°
Sets 20:30:35 0° 10° (N) 2,901 7.4 -24.9°
